Location: Unspecified
(0.0000°N, 0.0000°E)
Time: 11:32:11
(UTC+02:00)

NOAA 12 - Visible Passes

Search period start: 18 June 2018 00:00
Search period end: 28 June 2018 00:00
Orbit: 796 x 814 km, 98.5° (Epoch: 17 June)

Date Brightness Start Highest point End Pass type
(mag) Time Alt. Az. Time Alt. Az. Time Alt. Az.
18 Jun 5.7 21:24:30 10° SSW 21:29:07 32° WSW 21:33:45 10° NW visible
19 Jun 4.5 20:58:59 10° S 21:04:11 64° WSW 21:09:24 10° NNW visible
20 Jun 4.1 20:34:02 10° SSE 20:39:14 64° ENE 20:44:27 10° N visible
21 Jun 7.2 07:35:44 10° E 07:37:03 11° ESE 07:38:21 10° ESE visible
21 Jun 6.7 21:50:40 10° SW 21:53:48 16° WSW 21:56:58 10° WNW visible
22 Jun 5.7 21:24:15 10° SSW 21:28:53 32° WSW 21:33:31 10° NW visible
23 Jun 4.5 20:58:44 10° S 21:03:56 65° WSW 21:09:09 10° NNW visible
24 Jun 4.1 20:33:47 10° SSE 20:39:00 64° ENE 20:44:12 10° N visible
25 Jun 7.2 07:35:32 10° E 07:36:49 11° ESE 07:38:05 10° ESE visible
25 Jun 6.7 21:50:25 10° SW 21:53:34 16° WSW 21:56:45 10° WNW visible
26 Jun 5.7 21:24:01 10° SSW 21:28:39 32° WSW 21:33:18 10° NW visible
27 Jun 4.5 20:58:29 10° S 21:03:42 65° WSW 21:08:56 10° NNW visible
